This is the latest recevied weather packets stored in our database for station/object KB4RFE. If no packets are shown the sender has not sent any weather packets the latest 10 day(s).
| Time | Temp. | Humidity | Pressure | Rain* | Wind** | Luminosity | Snow |
|---|---|---|---|---|---|---|---|
| 1777933583 | 21.67° C | 45% | 1019.7 hPa | 0 mm | - | 73 W/m² | - |
| 1777933280 | 21.67° C | 47% | 1019.6 hPa | 0 mm | - | 81 W/m² | - |
| 1777932977 | 21.67° C | 47% | 1019.5 hPa | 0 mm | - | 91 W/m² | - |
| 1777932674 | 21.67° C | 48% | 1019.6 hPa | 0 mm | - | 96 W/m² | - |
| 1777932370 | 21.67° C | 46% | 1019.7 hPa | 0 mm | - | 107 W/m² | - |
| 1777932068 | 22.22° C | 46% | 1019.6 hPa | 0 mm | - | 112 W/m² | - |
| 1777931764 | 22.22° C | 46% | 1019.6 hPa | 0 mm | - | 132 W/m² | - |
| 1777931462 | 22.22° C | 47% | 1019.4 hPa | 0 mm | - | 157 W/m² | - |
| 1777931157 | 22.22° C | 49% | 1019.6 hPa | 0 mm | - | 138 W/m² | - |
| 1777930854 | 22.22° C | 48% | 1019.5 hPa | 0 mm | - | 162 W/m² | - |
| 1777930550 | 22.22° C | 48% | 1019.4 hPa | 0 mm | - | 388 W/m² | - |
| 1777930247 | 22.22° C | 47% | 1019.6 hPa | 0 mm | - | 366 W/m² | - |
| 1777929943 | 22.22° C | 49% | 1019.5 hPa | 0 mm | - | 418 W/m² | - |
| 1777929641 | 22.78° C | 48% | 1019.6 hPa | 0 mm | - | 413 W/m² | - |
| 1777929337 | 22.78° C | 47% | 1019.5 hPa | 0 mm | - | 453 W/m² | - |
| 1777929035 | 22.78° C | 51% | 1019.7 hPa | 0 mm | - | 465 W/m² | - |
| 1777928731 | 22.78° C | 49% | 1019.6 hPa | 0 mm | - | 496 W/m² | - |
| 1777928428 | 22.78° C | 49% | 1019.4 hPa | 0 mm | - | 469 W/m² | - |
| 1777928126 | 22.78° C | 48% | 1019.4 hPa | 0 mm | - | 537 W/m² | - |
| 1777927824 | 22.78° C | 52% | 1019.5 hPa | 0 mm | - | 546 W/m² | - |
| 1777927522 | 22.78° C | 50% | 1019.7 hPa | 0 mm | - | 571 W/m² | - |
| 1777927221 | 22.78° C | 48% | 1019.7 hPa | 0 mm | - | 581 W/m² | - |
| 1777926918 | 23.33° C | 54% | 1019.8 hPa | 0 mm | - | 580 W/m² | - |
| 1777926615 | 23.33° C | 56% | 1019.7 hPa | 0 mm | - | 557 W/m² | - |
| 1777926311 | 22.78° C | 55% | 1020 hPa | 0 mm | - | 622 W/m² | - |
* Rain latest hour (hover to see other rain measurements)
** Current wind speed in m/s (hover to see current wind gust speed)